[[{"header":{"parameterUnit":"m.s-1","parameterCategory":1,"la1":30.2991,"la2":30.254,"lo1":-89.0895,"lo2":-89.0444,"dy":0.0017,"dx":0.0017,"nx":28,"ny":28,"refTime":"2025-03-28T03:00:00:Z","depth":0,"parameterNumber":2,"parameterNumberName":"U-component_of_WINDS"},"data":[0,0,0,0,0,0,0,0,0,0,0,0,0,0,0,0,0,0,0,0,0,0,0,0,0,0,0,0,0,0,0,0,0,0,0,0,0,0,0,0,0,0,0,0,0,0,0,0,0,0,0,0,0,0,0,0,0,0,-7.0232,-7.0237,0,-7.0708,-7.0713,-7.0719,-7.09,-7.0898,-7.0897,-7.0895,-7.1378,-7.1391,-7.1405,0,0,0,0,0,0,0,0,0,0,0,0,0,-6.9481,-6.9493,-7.0232,-7.0238,-7.0244,-7.0707,-7.0714,-7.072,-7.09,-7.0898,-7.0896,-7.0895,-7.1373,-7.139,-7.1407,0,0,0,0,0,0,0,0,0,0,0,0,0,-6.9866,-6.9498,-7.0231,-7.0389,-7.0408,-7.0706,-7.0714,-7.0722,-7.09,-7.0898,-7.0896,-7.0894,-7.1368,-7.1388,-7.1409,-7.1582,0,0,-7.1474,-7.1483,0,0,0,0,0,0,0,0,-6.9844,-6.9894,-7.036,-7.0379,-7.0401,-7.0742,-7.0626,-7.101,-7.0901,-7.0713,-7.0895,-7.0893,-7.1168,-7.1205,-7.1299,-7.1605,-7.1626,-7.1476,-7.1489,-7.1498,-7.1504,0,0,0,0,0,0,0,-6.9817,-6.9874,-7.042,-7.0367,-7.0392,-7.0437,-7.049,-7.0699,-7.0946,-7.0729,-7.0744,-7.0798,-7.1178,-7.1278,-7.1312,-7.1633,-7.1475,-7.1494,-7.1507,-7.1516,-7.2112,-7.2115,0,0,0,0,0,0,-6.9764,-6.9851,-7.0405,-7.0434,-7.0112,-7.0453,-7.0511,-7.0635,-7.0945,-7.099,-7.0799,-7.0804,-7.1243,-7.1287,-7.1329,-7.1556,-7.1498,-7.1518,-7.153,-7.2109,-7.2113,-7.2116,0,0,0,0,0,0,-6.9747,-6.9812,-7.0386,-7.0147,-7.0224,-7.0468,-7.0605,-7.0645,-7.0745,-7.0997,-7.1042,-7.0855,-7.1243,-7.1299,-7.152,-7.1575,-7.1527,-7.1546,-7.2105,-7.211,-7.2115,-7.2008,0,0,0,0,0,0,-6.9725,-6.9805,-6.9872,-7.0147,-7.0235,-7.0567,-7.0608,-7.0656,-7.0782,-7.0793,-7.1062,-7.1104,-7.1246,-7.1487,-7.1541,-7.1604,-7.1563,-7.2102,-7.2108,-7.2113,-7.2008,-7.2008,-7.2009,0,0,0,0,0,-6.9698,-6.9821,-6.9874,-6.994,-7.0325,-7.057,-7.0621,-7.0782,-7.0785,-7.0856,-7.102,-7.1096,-7.1561,-7.1508,-7.157,-7.164,-7.2099,-7.2106,-7.2113,-7.2007,-7.2008,-7.2009,0,0,0,0,0,0,-6.9542,-6.9859,-6.9922,-7.0138,-7.0326,-7.06,-7.0693,-7.0777,-7.0966,-7.0969,-7.116,-7.122,-7.1425,-7.1556,-7.1491,-7.1828,-7.1836,-7.1855,-7.1734,-7.1737,-7.1738,-7.1701,-7.1581,0,0,0,0,0,-6.9533,-6.9707,-6.9975,-7.0139,-7.0231,-7.0446,-7.0558,-7.0668,-7.0869,-7.0949,-7.1128,-7.1321,-7.1512,-7.1632,-7.1821,-7.2029,-7.2092,-7.2109,-7.2109,-7.2109,-7.2122,-7.2247,-7.2258,-7.2139,-7.2139,-7.2139,0,0,-6.9516,-6.9711,-6.9807,-7.0113,-7.0271,-7.0448,-7.0511,-7.0693,-7.0826,-7.0976,-7.1197,-7.1336,-7.1564,-7.178,-7.1884,-7.1895,-7.2171,-7.2118,-7.2115,-7.213,-7.2255,-7.2266,-7.2276,-7.2144,-7.2143,-7.2143,0,0,-6.9574,-6.9738,-6.9896,-7.0055,-7.0297,-7.044,-7.0478,-7.0742,-7.0841,-7.1066,-7.1185,-7.1346,-7.1669,-7.1828,-7.1951,-7.2079,-7.2158,-7.2136,-7.2138,-7.2258,-7.2267,-7.2276,-7.2324,-7.2338,-7.2149,-7.2149,-7.2149,0,-6.9521,-6.9791,-6.9965,-7.0144,-7.0276,-7.0425,-7.0588,-7.0734,-7.1022,-7.1111,-7.112,-7.1533,-7.1697,-7.1955,-7.1987,-7.2081,-7.2132,-7.2104,-7.2252,-7.2263,-7.2274,-7.2321,-7.2338,-7.2145,-7.2145,-7.2146,-7.2146,0,-6.9716,-6.9902,-7.0,-7.028,-7.0424,-7.0592,-7.0794,-7.0919,-7.1018,-7.1161,-7.1391,-7.1595,-7.183,-7.19,-7.1996,-7.2174,-7.2173,-7.2215,-7.2226,-7.2278,-7.2326,-7.2345,-7.2139,-7.214,-7.2142,-7.2143,0,0,-6.9682,-7.0063,-7.0096,-7.0227,-7.0508,-7.0655,-7.0833,-7.1067,-7.1171,-7.1368,-7.1523,-7.1797,-7.184,-7.1979,-7.2096,-7.2201,-7.2293,-7.2231,-7.224,-7.2236,-7.2505,-7.2471,-7.2489,-7.2349,-7.2353,-7.2357,-7.2486,0,-6.9778,-7.0103,-7.0269,-7.0523,-7.0699,-7.0848,-7.1004,-7.1194,-7.1334,-7.1505,-7.1661,-7.1853,-7.1894,-7.198,-7.2091,-7.2258,-7.235,-7.2252,-7.2495,-7.2502,-7.2431,-7.2514,-7.2477,-7.2589,-7.2506,-7.2509,-7.2512,0,-6.9931,-7.0131,-7.0402,-7.0669,-7.0749,-7.0886,-7.1116,-7.1278,-7.1498,-7.1594,-7.1754,-7.187,-7.2066,-7.2066,-7.234,-7.2269,-7.238,-7.2478,-7.2487,-7.2514,-7.2507,-7.2542,-7.2628,-7.2644,-7.2543,-7.254,-7.2538,0,-6.9881,-7.0218,-7.0426,-7.0533,-7.0848,-7.0942,-7.1078,-7.1297,-7.1428,-7.163,-7.1718,-7.1939,-7.2059,-7.2228,-7.2402,-7.2386,-7.266,-7.2674,-7.2745,-7.2741,-7.2793,-7.2786,-7.2897,-7.2866,-7.2866,-7.2865,-7.2865,0,-6.997,-7.013,-7.0408,-7.0535,-7.0722,-7.0913,-7.1092,-7.124,-7.1435,-7.1595,-7.1738,-7.1885,-7.2106,-7.2282,-7.242,-7.2627,-7.268,-7.2763,-7.2798,-7.275,-7.2739,-7.2823,-7.2819,-7.287,-7.2869,-7.2868,-7.2867,0,-6.9943,-7.0135,-7.0372,-7.0654,-7.0729,-7.0854,-7.1096,-7.1226,-7.1378,-7.1579,-7.1637,-7.1873,-7.2089,-7.2281,-7.2564,-7.2657,-7.2869,-7.2912,-7.2794,-7.2813,-7.2874,-7.2865,-7.304,-7.3073,-7.3019,-7.302,-7.302,0,-6.9985,-7.0114,-7.0411,-7.053,-7.0664,-7.0852,-7.0989,-7.1185,-7.1321,-7.1586,-7.1685,-7.1912,-7.2103,-7.244,-7.2637,-7.2857,-7.2906,-7.2953,-7.2939,-7.2889,-7.2908,-7.2897,-7.2912,-7.295,-7.295,-7.2949,-7.2949,0,-7.0041,-7.0132,-7.0324,-7.0551,-7.0711,-7.0899,-7.109,-7.118,-7.1412,-7.1559,-7.1782,-7.193,-7.2224,-7.2447,-7.2691,-7.2832,-7.293,-7.2953,-7.2981,-7.2932,-7.2859,-7.29,-7.2791,-7.2947,-7.2947,-7.2947,-7.2947,-7.2947,-7.0052,-7.0175,-7.0404,-7.0615,-7.0781,-7.0959,-7.1097,-7.1268,-7.1458,-7.1713,-7.1818,-7.2045,-7.2269,-7.2606,-7.2748,-7.293,-7.2948,-7.2988,-7.2998,-7.3005,-7.2997,-7.2832,-7.2975,-7.2976,-7.2976,-7.2976,-7.2976,0,-7.0116,-7.0273,-7.0465,-7.0731,-7.0898,-7.098,-7.1199,-7.1332,-7.1531,-7.1732,-7.192,-7.2179,-7.2398,-7.2616,-7.2848,-7.2952,-7.3003,-7.3006,-7.2999,-7.3031,-7.2967,-7.292,-7.2961,-7.2961,-7.2961,-7.2961,-7.2961,-7.2961,-7.0169,-7.0381,-7.05,-7.0799,-7.0956,-7.1181,-7.1299,-7.1465,-7.1627,-7.1911,-7.2095,-7.2236,-7.2446,-7.2695,-7.2901,-7.296,-7.3039,-7.3029,-7.3099,-7.3035,-7.3034,-7.3033,-7.299,-7.3045,-7.3045,-7.3148,-7.3149,-7.315]},{"header":{"parameterUnit":"m.s-1","parameterCategory":1,"la1":30.2991,"la2":30.254,"lo1":-89.0895,"lo2":-89.0444,"dy":0.0017,"dx":0.0017,"nx":28,"ny":28,"refTime":"2025-03-28T03:00:00:Z","depth":0,"parameterNumber":3,"parameterNumberName":"V-component_of_WINDS"},"data":[0,0,0,0,0,0,0,0,0,0,0,0,0,0,0,0,0,0,0,0,0,0,0,0,0,0,0,0,0,0,0,0,0,0,0,0,0,0,0,0,0,0,0,0,0,0,0,0,0,0,0,0,0,0,0,0,0,0,2.9758,2.9759,0,2.9903,2.9905,2.9906,2.9906,2.9904,2.9902,2.99,3.0052,3.0058,3.0064,0,0,0,0,0,0,0,0,0,0,0,0,0,2.9489,2.9494,2.9758,2.976,2.9761,2.9903,2.9905,2.9907,2.9906,2.9904,2.9902,2.9899,3.005,3.0057,3.0064,0,0,0,0,0,0,0,0,0,0,0,0,0,2.9617,2.9496,2.9757,2.9778,2.9781,2.9902,2.9905,2.9907,2.9907,2.9904,2.9901,2.9898,3.0048,3.0057,3.0065,3.0176,0,0,3.0092,3.0096,0,0,0,0,0,0,0,0,2.961,2.9627,2.9773,2.9777,2.9781,2.9883,2.9866,2.9998,2.9907,2.9859,2.99,2.9897,2.9999,3.0011,3.0045,3.0183,3.019,3.0093,3.0098,3.0102,3.0104,0,0,0,0,0,0,0,2.9601,2.9621,2.9815,2.9775,2.978,2.9783,2.9798,2.9891,2.9943,2.9863,2.9863,2.9881,3.0,3.0036,3.0048,3.0192,3.0092,3.01,3.0106,3.0109,3.0442,3.0445,0,0,0,0,0,0,2.9587,2.9614,2.9811,2.982,2.9687,2.979,2.9807,2.9853,2.9942,2.9953,2.9883,2.988,3.0023,3.0038,3.0054,3.0199,3.0102,3.011,3.0115,3.0438,3.0443,3.0447,0,0,0,0,0,0,2.9581,2.9605,2.9805,2.9717,2.9743,2.9798,2.985,2.9858,2.9894,2.9957,2.9967,2.991,3.0021,3.0041,3.0148,3.0204,3.0114,3.0122,3.0434,3.044,3.0445,3.0484,0,0,0,0,0,0,2.9574,2.9603,2.9643,2.9718,2.9747,2.9894,2.9853,2.9863,2.9909,2.9906,2.9985,2.9995,3.0021,3.0135,3.0157,3.0214,3.0128,3.043,3.0437,3.0443,3.0478,3.049,3.05,0,0,0,0,0,2.9564,2.9646,2.9644,2.9668,2.9798,2.9897,2.9914,2.9941,2.9913,2.9957,2.9999,2.9993,3.0193,3.0146,3.0171,3.0231,3.0426,3.0435,3.0442,3.0473,3.0487,3.05,0,0,0,0,0,0,2.9574,2.9656,2.9655,2.9763,2.9824,2.9897,2.9952,2.9954,3.0024,3.0019,3.005,3.0068,3.0177,3.0213,3.016,3.0349,3.0307,3.032,3.0322,3.0336,3.0347,3.0338,3.0136,0,0,0,0,0,2.9589,2.9661,2.9728,2.9817,2.9848,2.9895,2.9939,2.9955,3.0019,3.0045,3.0094,3.0158,3.0237,3.0287,3.0362,3.0482,3.0505,3.0536,3.0547,3.0556,3.0569,3.0646,3.0664,3.0473,3.0473,3.0473,0,0,2.962,2.9674,2.9717,2.9821,2.987,2.9948,2.9916,2.9997,3.0058,3.0057,3.0164,3.0203,3.0277,3.0394,3.0447,3.0428,3.0627,3.0567,3.0573,3.0582,3.0657,3.0675,3.0691,3.0479,3.0478,3.0477,0,0,2.9719,2.9763,2.9847,2.9898,2.9973,3.0005,3.0026,3.0101,3.0128,3.0235,3.0239,3.0312,3.0443,3.05,3.0545,3.0675,3.0677,3.0698,3.0758,3.0833,3.0848,3.0862,3.0917,3.0936,3.071,3.071,3.071,0,2.9749,2.9864,2.989,2.9975,3.0025,3.0029,3.0119,3.0167,3.0263,3.0299,3.0275,3.0449,3.0497,3.0633,3.0666,3.0699,3.073,3.0691,3.0843,3.0857,3.0871,3.0924,3.0944,3.0713,3.0712,3.0712,3.0712,0,2.9903,2.9983,3.0042,3.0138,3.0194,3.028,3.0324,3.0378,3.0391,3.0427,3.0542,3.0602,3.0694,3.0726,3.0737,3.0867,3.0854,3.0836,3.0795,3.0891,3.0943,3.0962,3.0717,3.0716,3.0715,3.0714,0,0,3.0009,3.0123,3.0145,3.0194,3.028,3.0345,3.0435,3.0526,3.0577,3.0644,3.0726,3.0841,3.0829,3.0881,3.0899,3.0964,3.1076,3.094,3.0943,3.0971,3.1233,3.1251,3.1274,3.1075,3.1079,3.1082,3.123,0,3.0123,3.0282,3.0312,3.0453,3.0533,3.0543,3.0623,3.0688,3.0726,3.0803,3.0845,3.093,3.0902,3.0936,3.1,3.1048,3.113,3.1037,3.1159,3.1162,3.1146,3.1299,3.1316,3.1452,3.1249,3.1253,3.1255,0,3.0275,3.0352,3.0501,3.0587,3.0622,3.0693,3.0785,3.0855,3.0933,3.0957,3.1019,3.1033,3.1134,3.1085,3.1229,3.1166,3.1217,3.125,3.1256,3.1273,3.1219,3.1328,3.1495,3.1519,3.1285,3.1282,3.128,0,3.0349,3.0488,3.0598,3.0638,3.0738,3.079,3.0835,3.0909,3.0965,3.1046,3.1085,3.1174,3.1226,3.1298,3.1339,3.1298,3.1484,3.1435,3.1513,3.1512,3.1555,3.1553,3.1741,3.1576,3.1575,3.1575,3.1574,0,3.0477,3.057,3.0634,3.0703,3.0811,3.0846,3.0953,3.0998,3.1065,3.1147,3.1159,3.1236,3.1282,3.1367,3.1399,3.152,3.154,3.1567,3.1576,3.157,3.1568,3.1609,3.1603,3.158,3.1579,3.1578,3.1577,0,3.0578,3.0623,3.0746,3.0834,3.0859,3.0935,3.1012,3.1083,3.1123,3.1227,3.1253,3.1317,3.1419,3.1466,3.159,3.1613,3.1753,3.1751,3.1728,3.1733,3.1811,3.1806,3.2037,3.2073,3.1877,3.1878,3.188,0,3.0659,3.0732,3.083,3.0886,3.0933,3.1021,3.1081,3.1121,3.1184,3.1283,3.1344,3.1446,3.1531,3.1695,3.1755,3.1854,3.1859,3.1934,3.1874,3.187,3.1872,3.187,3.1882,3.1946,3.1948,3.1949,3.1951,0,3.0801,3.0823,3.0907,3.1003,3.1075,3.1151,3.1227,3.1273,3.1326,3.1397,3.1503,3.1569,3.1701,3.1806,3.191,3.196,3.1969,3.1969,3.1994,3.1992,3.1979,3.1997,3.1766,3.1964,3.1963,3.1962,3.1961,3.1961,3.0901,3.097,3.1053,3.115,3.1212,3.1285,3.1359,3.1411,3.15,3.1611,3.1629,3.1745,3.183,3.1971,3.2026,3.2121,3.2104,3.2136,3.2147,3.2156,3.2166,3.1959,3.2138,3.2138,3.2138,3.2138,3.2137,0,3.1051,3.1107,3.1196,3.1304,3.1383,3.1382,3.1469,3.1536,3.1638,3.1716,3.1801,3.1929,3.2033,3.2104,3.2212,3.2275,3.2282,3.2303,3.2302,3.2316,3.217,3.2142,3.2296,3.2296,3.2296,3.2296,3.2296,3.2296,3.1139,3.1261,3.1294,3.145,3.1505,3.1619,3.167,3.1741,3.1805,3.1947,3.2035,3.208,3.2159,3.2274,3.2373,3.2392,3.2435,3.2458,3.2477,3.2341,3.2324,3.2309,3.2283,3.2464,3.2465,3.2617,3.2618,3.2619]}]]